Regional Weather Roundup
Issued by NWS Green Bay, WI

Home | Current Version | Previous Version | Text Only | Print | Product List | Glossary On
Versions: 1 2 3 4 5 6 7 8 9 10 11 12 13 14 15 16 17 18 19 20 21 22 23 24 25 26 27 28 29 30 31 32 33 34 35 36 37 38 39 40 41 42 43 44 45 46 47 48 49 50
000
ASUS43 KGRB 022111
RWRGRB

NORTH-CENTRAL AND NORTHEAST WISCONSIN REGIONAL WEATHER ROUNDUP
NATIONAL WEATHER SERVICE GREEN BAY WI
400 PM CDT WED SEP 02 2015

WIZ005-009-010>012-018-019-022200-
NORTH CENTRAL WISCONSIN

CITY           SKY/WX    TMP DP  RH WIND       PRES   REMARKS
IRONWOOD       CLOUDY    72  66  83 SE6       29.92S
MANITOWISH WTR CLOUDY    69  68  96 CALM      29.96F
ARBOR VITAE    PTSUNNY   69  68  94 CALM      29.96F
EAGLE RIVER    DRIZZLE   69  68  97 CALM      29.96F
LAND O LAKES   PTSUNNY   70  67  89 E5        29.98F
RHINELANDER    FAIR      70  67  90 E8        29.96F
PHILLIPS       FAIR      67  66  95 CALM      29.94F
ANTIGO         PTSUNNY   69  68  96 SE12      29.97F
TOMAHAWK       FAIR      68  66  94 E5        29.95F
MERRILL        CLOUDY    70  69  99 E8        29.94F
$$

WIZ013-073-022200-
NORTHEAST WISCONSIN

CITY           SKY/WX    TMP DP  RH WIND       PRES   REMARKS
IRON MOUNTAIN  LGT RAIN  73  67  81 N5        29.98S
MARINETTE      CLOUDY    70  63  78 N8G17     29.97R THUNDER
OCONTO         CLOUDY    71  71 100 N12G26    29.94R
$$

WIZ017-030-035>037-045-022200-
CENTRAL WISCONSIN

CITY           SKY/WX    TMP DP  RH WIND       PRES   REMARKS
MEDFORD        CLOUDY    67  67  99 E5        29.93S THUNDER
WAUSAU         FAIR      74  69  85 E7        29.92F
MOSINEE        MOSUNNY   77  72  83 NE7       29.95F
MARSHFIELD     FAIR      81  68  64 W3        29.94S
WISC RAPIDS    FAIR      85  65  51 SW13G20   29.94F
STEVENS POINT  FAIR      84  66  55 SW7       29.94S
WAUPACA        FAIR      89  65  45 S8        29.93F HX  91
SHAWANO        PTSUNNY   78  69  73 N13       29.96R
CLINTONVILLE   FAIR      88  64  45 SW10      29.92F
WAUTOMA        FAIR      89  69  51 S12       29.93F HX  93
$$

WIZ038-039-048-051-022200-
FOX VALLEY

CITY           SKY/WX    TMP DP  RH WIND       PRES   REMARKS
NWS GREEN BAY  FAIR      87  70  56 S9        29.93F HX  92
APPLETON       MOSUNNY   86  64  48 S14       29.92F
OSHKOSH        FAIR      85  68  56 S12G22    29.93F
FOND DU LAC    FAIR      84  70  62 SW8       29.94F
$$

WIZ022-050-052-022200-
EAST CENTRAL WISCONSIN

CITY           SKY/WX    TMP DP  RH WIND       PRES   REMARKS
EPHRAIM        FAIR      72  67  85 SE8       29.95S
STURGEON BAY   PTSUNNY   73  68  83 SE12      29.96F
MANITOWOC      FAIR      87  69  54 MISG      29.94F HX  91
SHEBOYGAN      FAIR      84  69  60 SW8       29.94F
$$

LMZ563-521-522-541>543-022200-
LAKESHORE

STATION/POSITION TIME  TEMP    WIND        PRES    VSBY  WAVE
                       AIR SEA DIR/SP/G                  HT/PER
                 (UTC) (F)     (DEG/KT/KT) (MB)    (MI)  (FT/S)
SHEBOYGAN LKSHOR 2100   77     180/ 13/ 13 1013.6F
KEWAUNEE LKSHORE 2000   62     150/  5/  7 1013.1F
ALGOMA MARINA    2014           60/ 16/ 18   N/A
NORTHPORT PIER   2000   70     150/  3/  5 1014.2F
N MID LAKE BUOY  2050   69 66   90/  8/ 10 1013.6F         1/ 3
S GREEN BAY BUOY 2100   75 69  150/ 10/ 16 1014.9
SISTER BAY LKSHO 2019   83     140/  8/ 12   N/A
CHAMBERS ISLAND  2000   71     360/  5/ 11 1013.9F
MENOMINEE LKSHOR 2000   66      20/  7/  8 1013.0F
$$



USA.gov is the U.S. government's official web portal to all federal, state and local government web resources and services.